Flag for Hong Kong Weather past 2 weeks in Hong Kong, Hong Kong

Now
86 °F

Passing clouds.


Feels Like: 95 °F
Forecast: 80 / 89 °F
Wind: 7 mph from South

Location: National Airport

Current Time: Oct 1, 2014 at 8:24:36 PM

Latest Report: Oct 1, 2014 at 7:30 PM


Visibility: N/A

Pressure: 29.86 "Hg

Humidity: 70%

Dew point: 75 °F

Location of Hong KongLocation

Historic Weather in Hong Kong — Graph

°F

Hong Kong temperature yesterday

Maximum temperature yesterday: 95 °F (at 3:00 PM)
Minimum temperature yesterday: 82 °F (at 2:00 AM)
Average temperature yesterday: 88 °F

Past Weeks' High & Low Weather Summary

 TemperatureHumidityPressure
High95 °F (Sep 19, 3:30 PM)89% (Sep 17, 8:30 AM)29.98 "Hg (Sep 17, 8:30 AM)
Low79 °F (Sep 22, 5:00 AM)39% (Sep 29, 3:00 PM)29.59 "Hg (Sep 20, 4:00 PM)
Average85 °F68%29.82 "Hg
* Reported Sep 16 7:00 PM — Oct 1 7:00 PM, Hong Kong, Weather by CustomWeather, © 2014

Note: Actual official high and low records may vary slightly from our data, if they occured in-between our weather recording intervals... More about our weather records

Advertising

Hong Kong weather history for previous 24 hours

 ConditionsComfort  
Time TempWeatherWind HumidityBarometerVisibility
7:00 PM
Oct 1
86 °FPassing clouds.7 mph70%29.86 "HgN/A
6:30 PM86 °FPassing clouds.7 mph70%29.86 "HgN/A
6:00 PM86 °FPassing clouds.7 mph70%29.86 "HgN/A
5:30 PM88 °FPassing clouds.3 mph62%29.83 "HgN/A
5:00 PM88 °FPassing clouds.5 mph62%29.83 "HgN/A
4:30 PM88 °FPassing clouds.5 mph62%29.83 "HgN/A
4:00 PM90 °FPassing clouds.5 mph59%29.83 "HgN/A
3:30 PM91 °FScattered clouds.5 mph56%29.83 "HgN/A
3:00 PM90 °FScattered clouds.7 mph59%29.83 "HgN/A
2:30 PM91 °FScattered clouds.3 mph56%29.86 "HgN/A
2:00 PM91 °FScattered clouds.8 mph56%29.86 "HgN/A
1:30 PM91 °FPassing clouds.10 mph56%29.86 "HgN/A
1:00 PM91 °FPassing clouds.10 mph56%29.89 "HgN/A
12:30 PM90 °FPassing clouds.8 mph59%29.89 "HgN/A
12:00 PM90 °FPassing clouds.10 mph59%29.92 "HgN/A
11:30 AM90 °FScattered clouds.10 mph59%29.92 "HgN/A
11:00 AM88 °FScattered clouds.9 mph62%29.92 "HgN/A
10:30 AM86 °FScattered clouds.8 mph66%29.95 "HgN/A
10:00 AM86 °FPassing clouds.9 mph66%29.95 "HgN/A
9:30 AM88 °FScattered clouds.12 mph62%29.95 "HgN/A
9:00 AM86 °FScattered clouds.5 mph66%29.95 "HgN/A
8:30 AM84 °FScattered clouds.5 mph70%29.95 "HgN/A
8:00 AM82 °FPassing clouds.5 mph74%29.92 "HgN/A
7:30 AM82 °FPassing clouds.5 mph79%29.92 "HgN/A
7:00 AM82 °FPassing clouds.10 mph79%29.89 "HgN/A
6:30 AM81 °FPassing clouds.9 mph84%29.89 "HgN/A
6:00 AM81 °FPassing clouds.12 mph84%29.89 "HgN/A
5:30 AM81 °FPassing clouds.6 mph84%29.89 "HgN/A
5:00 AM81 °FPassing clouds.12 mph84%29.89 "HgN/A
4:30 AM81 °FPassing clouds.17 mph84%29.86 "HgN/A
4:00 AM81 °FPassing clouds.16 mph79%29.86 "HgN/A
3:30 AM79 °FThunderstorms. Passing clouds.18 mph84%29.86 "HgN/A
3:00 AM79 °FRain showers. Passing clouds.20 mph89%29.89 "Hg6 mi
2:30 AM84 °FPassing clouds.10 mph70%29.86 "HgN/A
2:00 AM86 °FPassing clouds.9 mph66%29.86 "HgN/A
1:30 AM84 °FPassing clouds.12 mph74%29.86 "Hg5 mi
1:00 AM86 °FThunderstorms. Passing clouds.12 mph70%29.86 "Hg5 mi
12:30 AM86 °FPassing clouds.13 mph70%29.86 "Hg4 mi
12:00 AM86 °FPassing clouds.3 mph75%29.86 "Hg4 mi
11:30 PM
Sep 30
86 °FPassing clouds.2 mph70%29.86 "Hg5 mi
11:00 PM88 °FPassing clouds.5 mph66%29.89 "Hg6 mi
10:30 PM86 °FPassing clouds.9 mph75%29.89 "Hg5 mi
10:00 PM86 °FPassing clouds.5 mph75%29.89 "Hg4 mi
9:30 PM88 °FPassing clouds.12 mph70%29.86 "Hg4 mi
9:00 PM88 °FThundershowers. Passing clouds.8 mph70%29.86 "Hg6 mi
8:30 PM90 °FPassing clouds.7 mph67%29.86 "Hg6 mi
8:00 PM90 °FPassing clouds.10 mph67%29.83 "Hg5 mi
Weather by CustomWeather, © 2014

See weather overviewHow to use our weather pages